This is the latest recevied weather packets stored in our database for station/object WY1B. If no packets are shown the sender has not sent any weather packets the latest 10 day(s).
| Time | Temp. | Humidity | Pressure | Rain* | Wind** | Luminosity | Snow |
|---|---|---|---|---|---|---|---|
| 1787811926 | 35° C | 29% | 1003.2 hPa | 0 mm | - | 0 W/m² | - |
| 1787811620 | 34.44° C | 28% | 1003.2 hPa | 0 mm | - | 0 W/m² | - |
| 1787811315 | 34.44° C | 28% | 1003.2 hPa | 0 mm | - | 0 W/m² | - |
| 1787811015 | 34.44° C | 29% | 1003.1 hPa | 0 mm | - | 0 W/m² | - |
| 1787810710 | 34.44° C | 27% | 1003 hPa | 0 mm | - | 0 W/m² | - |
| 1787810410 | 35° C | 29% | 1003.1 hPa | 0 mm | - | 0 W/m² | - |
| 1787810105 | 35° C | 27% | 1002.9 hPa | 0 mm | - | 0 W/m² | - |
| 1787809800 | 35.56° C | 28% | 1003.1 hPa | 0 mm | - | 0 W/m² | - |
| 1787809494 | 35.56° C | 26% | 1003 hPa | 0 mm | - | 0 W/m² | - |
| 1787809191 | 35.56° C | 28% | 1002.8 hPa | 0 mm | - | 0 W/m² | - |
| 1787808888 | 35.56° C | 31% | 1002.9 hPa | 0 mm | - | 0 W/m² | - |
| 1787808586 | 36.11° C | 26% | 1003 hPa | 0 mm | - | 0 W/m² | - |
| 1787808286 | 36.11° C | 28% | 1002.9 hPa | 0 mm | - | 0 W/m² | - |
| 1787807985 | 36.11° C | 25% | 1003 hPa | 0 mm | - | 0 W/m² | - |
| 1787807680 | 36.11° C | 31% | 1003 hPa | 0 mm | - | 0 W/m² | - |
| 1787807375 | 36.11° C | 25% | 1003 hPa | 0 mm | - | 0 W/m² | - |
| 1787807071 | 36.11° C | 26% | 1003 hPa | 0 mm | - | 0 W/m² | - |
| 1787806769 | 36.11° C | 25% | 1002.9 hPa | 0 mm | - | 0 W/m² | - |
| 1787806470 | 36.67° C | 25% | 1003.1 hPa | 0 mm | - | 0 W/m² | - |
| 1787806168 | 36.67° C | 32% | 1003 hPa | 0 mm | - | 0 W/m² | - |
| 1787805864 | 36.67° C | 24% | 1002.9 hPa | 0 mm | - | 0 W/m² | - |
| 1787805560 | 36.67° C | 24% | 1002.9 hPa | 0 mm | - | 0 W/m² | - |
| 1787805255 | 37.22° C | 32% | 1002.7 hPa | 0 mm | - | 0 W/m² | - |
| 1787804953 | 37.22° C | 29% | 1002.8 hPa | 0 mm | - | 0 W/m² | - |
| 1787804649 | 37.78° C | 25% | 1002.9 hPa | 0 mm | - | 0 W/m² | - |
* Rain latest hour (hover to see other rain measurements)
** Current wind speed in m/s (hover to see current wind gust speed)